Theta_e
311 311 310 310 310 310 309 311 312 313 313 312 311 312 312 312 312 315 316 315 315 317 317 318 317 319 319 323 322 322 328 332 334 338 342 341 339 334 333 327 326 335 324 326 331
310 310 309 309 309 309 309 311 312 313 314 314 314 315 315 316 322 319 315 312 315 317 318 318 319 320 322 323 323 325 329 331 329 337 341 342 337 336 331 330 332 333 326 328 331
311 309 306 307 308 308 309 313 314 312 314 314 314 314 315 318 328 321 314 314 314 318 317 317 320 322 322 323 324 325 329 329 333 336 342 342 337 336 332 331 331 331 327 330 330
311 309 306 305 306 307 308 314 316 316 313 315 314 314 319 325 327 325 314 317 317 320 318 319 322 322 323 323 324 324 326 334 341 339 342 342 339 337 336 334 335 333 327 328 330
311 310 306 304 306 307 309 314 318 318 317 315 315 315 323 330 328 329 319 313 316 319 319 321 323 323 323 324 324 324 327 337 341 340 342 342 341 337 339 337 336 334 328 328 329
310 309 305 304 305 307 310 315 318 320 318 314 316 315 328 329 326 326 322 318 321 319 319 319 323 323 324 324 324 332 334 341 342 342 342 343 341 341 339 338 336 335 331 330 332
307 307 304 304 305 307 310 314 318 320 317 315 315 318 326 328 328 323 321 319 319 319 319 320 321 322 323 329 335 336 337 343 343 342 343 342 342 341 338 338 337 336 335 336 335
303 304 303 305 306 307 311 313 318 320 316 316 315 325 326 326 326 322 319 319 319 318 318 320 321 322 328 336 336 336 338 341 345 343 341 342 335 342 341 338 339 338 337 337 340
302 303 303 305 306 308 310 315 317 320 318 318 326 328 323 321 324 325 320 319 320 319 320 318 320 322 334 334 334 336 333 336 343 343 343 343 338 340 341 340 340 340 339 338 340
302 303 304 305 307 309 312 315 316 317 321 320 323 327 321 324 322 323 323 321 321 321 321 322 322 322 323 330 330 330 331 335 337 344 344 342 340 342 341 341 341 341 340 339 339
302 304 305 305 307 309 316 318 322 325 320 320 321 321 320 321 320 323 324 323 323 323 322 322 323 323 324 325 325 335 330 334 334 342 343 341 339 337 341 342 342 342 342 342 340
302 304 305 306 307 310 316 316 311 311 317 319 320 320 319 320 322 323 322 322 322 321 322 322 322 324 321 320 323 331 330 331 333 333 341 338 336 333 336 340 341 342 342 344 344
302 303 305 307 307 311 315 311 308 312 321 321 320 321 320 319 322 324 322 322 321 321 322 321 321 322 321 321 321 325 328 329 333 328 329 333 333 333 334 337 338 341 341 342 345
302 302 304 307 311 310 315 309 309 313 324 323 325 323 319 321 322 323 322 322 322 321 321 321 321 320 321 322 322 323 324 323 322 326 325 332 326 327 328 332 337 340 342 342 344
302 302 304 304 309 313 310 309 312 317 322 323 324 320 320 323 324 323 323 323 323 323 323 322 322 321 321 321 322 323 323 323 323 325 326 330 327 326 335 333 336 339 339 341 341
303 303 304 311 311 310 309 309 318 325 320 327 323 322 321 322 323 322 324 324 325 323 322 322 322 322 322 322 323 323 323 323 324 325 328 326 329 327 327 329 329 332 336 338 341
303 304 304 307 314 309 310 316 322 320 318 326 324 322 323 322 323 323 324 325 325 324 323 322 322 322 322 323 323 324 326 326 325 324 324 324 325 327 326 327 327 328 332 335 339
304 305 309 309 311 312 312 319 320 318 318 320 322 322 323 323 322 322 324 325 325 324 323 323 323 322 323 323 324 326 326 324 323 324 323 327 325 325 326 327 330 331 336 338 338
304 311 313 313 312 312 316 317 318 318 318 319 319 322 326 323 322 322 324 324 324 324 325 324 323 322 322 324 325 327 328 326 328 327 326 325 326 327 327 329 331 332 335 336 339
306 311 314 312 311 313 316 315 316 315 319 320 320 320 325 325 324 324 324 324 323 323 325 325 326 323 323 324 324 326 327 327 328 328 329 327 327 327 330 329 329 331 332 333 342
310 315 314 313 313 318 317 316 315 314 317 318 318 318 320 323 324 325 324 324 324 324 324 325 327 325 324 324 325 326 326 327 331 330 329 329 327 329 328 330 330 330 331 331 340
310 319 310 313 320 317 318 316 313 315 319 317 318 317 317 318 320 324 324 325 324 325 325 325 329 328 326 325 325 325 327 328 330 330 330 330 328 328 329 329 330 330 330 331 339
313 314 310 313 322 321 319 318 318 317 316 318 319 319 320 320 322 320 321 323 323 325 327 327 329 330 328 328 326 326 326 327 329 333 331 331 330 330 329 329 330 330 330 332 340
312 318 315 314 316 318 319 320 319 318 319 319 319 319 321 322 322 323 322 322 323 324 327 327 330 331 328 327 328 329 327 327 330 332 328 327 328 328 330 331 331 332 332 332 334
310 315 315 319 319 318 318 317 318 320 321 320 321 321 321 322 323 322 322 322 322 326 326 331 333 329 328 326 327 327 327 327 329 330 330 327 328 328 329 329 330 332 333 334 334
313 313 313 315 315 315 314 317 318 320 319 320 322 323 323 325 324 324 324 325 326 325 328 331 331 328 328 326 326 326 326 326 327 328 328 328 329 328 329 330 330 331 331 331 331
307 309 311 311 313 315 317 317 318 317 317 317 319 319 321 322 320 321 322 323 325 327 330 331 332 330 330 327 326 328 327 326 327 328 329 330 329 329 330 331 330 330 330 330 330
Wind_Speed
26 25 26 25 24 22 24 19 12 8 6 5 5 6 6 6 6 3 9 2 7 11 7 6 8 9 7 5 5 4 7 8 3 4 10 12 10 9 4 13 8 5 9 20 22
26 27 26 25 25 24 25 18 11 8 6 5 6 7 8 10 6 10 7 9 11 10 9 10 10 9 9 5 4 7 7 3 3 0 7 14 12 11 12 14 12 12 14 23 24
27 28 28 27 26 25 26 17 12 9 7 5 6 7 10 5 6 6 8 11 15 11 5 7 5 9 10 6 6 4 5 3 1 2 4 12 13 8 13 12 14 16 20 22 22
28 29 28 29 27 26 27 18 17 10 8 7 6 6 6 3 1 5 9 16 12 7 7 6 9 11 10 10 6 7 2 4 3 4 8 13 12 8 12 4 12 17 21 22 19
28 29 29 29 28 26 26 20 13 10 8 7 7 6 2 7 6 2 9 17 12 8 8 6 9 10 12 9 6 9 2 1 3 8 7 9 10 7 10 6 9 20 21 20 18
27 28 29 29 28 27 23 20 14 14 7 7 5 3 5 6 3 1 10 16 11 10 6 6 4 5 3 4 9 2 4 5 6 10 10 11 7 5 8 9 15 21 21 18 18
27 28 29 29 28 28 21 19 15 12 4 5 3 1 7 5 3 5 11 13 10 5 4 3 6 8 1 5 3 3 9 8 8 9 5 7 10 10 10 10 16 19 18 18 18
27 27 28 28 29 28 18 18 12 7 2 1 1 2 5 3 3 8 9 8 7 6 4 4 5 6 6 3 5 9 8 13 10 9 5 9 14 10 9 14 14 16 17 18 19
26 26 28 28 30 24 20 16 5 2 2 1 1 4 5 4 6 8 11 9 9 7 5 3 5 3 5 10 8 8 15 19 11 9 7 12 8 11 10 11 12 15 17 17 18
26 26 27 27 30 19 16 10 2 1 1 2 4 5 6 5 5 6 9 8 6 9 7 7 6 8 7 9 12 15 19 18 13 12 12 15 15 5 7 12 12 13 16 17 19
28 27 27 28 23 19 13 5 4 5 6 10 5 7 3 3 4 9 10 11 8 8 12 8 10 13 12 3 12 13 18 14 12 6 13 17 15 16 11 9 13 14 16 18 19
28 28 27 28 14 17 9 5 5 6 10 13 15 14 12 2 5 9 12 14 11 14 9 8 15 12 1 4 5 9 14 15 11 4 9 16 18 16 11 15 15 16 17 18 18
28 29 28 28 8 10 6 6 8 4 6 3 4 5 7 14 9 11 14 14 12 15 12 16 4 3 11 10 9 10 12 10 11 6 10 7 15 17 18 18 16 18 17 18 19
27 28 28 28 3 11 2 5 12 5 5 6 5 5 7 9 9 9 18 11 8 13 11 11 11 8 12 16 12 14 11 8 9 7 12 16 12 13 12 14 18 20 18 20 20
26 28 26 20 12 6 4 11 5 3 4 3 5 5 8 11 8 12 16 11 13 11 7 8 11 16 12 12 14 16 12 15 14 13 13 11 9 16 6 11 16 20 21 21 21
25 27 27 8 7 7 11 12 4 5 3 2 3 5 9 13 8 8 12 11 8 12 11 15 2 10 13 6 10 1 8 13 13 14 15 20 15 15 13 12 12 15 18 20 19
26 24 20 7 5 10 12 5 5 5 2 3 1 2 7 10 15 10 13 18 14 11 13 14 15 13 10 12 8 11 13 9 12 14 16 19 12 15 18 9 12 13 11 13 16
26 23 11 5 8 10 5 5 7 1 5 2 3 8 8 8 11 17 8 15 17 13 8 11 13 18 13 17 13 19 18 14 15 15 17 7 10 14 10 10 8 7 6 6 7
25 9 3 3 8 4 6 8 4 6 2 4 8 9 8 8 5 12 17 14 15 16 13 6 9 1 5 11 11 9 10 11 13 4 9 9 7 8 10 9 9 9 6 7 6
16 8 1 8 1 5 7 12 6 3 4 4 5 1 5 5 7 10 13 9 14 13 16 9 12 8 5 8 5 8 3 7 9 16 17 11 9 7 8 11 11 9 9 9 4
5 5 3 1 4 5 8 9 5 6 4 4 5 7 7 5 5 9 6 6 7 8 12 11 10 11 8 11 13 7 10 8 6 7 12 12 10 8 7 10 9 10 8 7 5
5 4 3 5 5 2 8 3 2 8 3 8 7 12 13 9 8 6 7 4 3 8 7 9 7 11 17 9 6 11 14 11 9 13 11 10 13 2 6 10 10 10 9 8 8
6 4 2 3 5 6 3 8 5 8 9 4 6 7 3 8 6 10 11 3 3 5 4 7 7 9 11 9 7 10 13 15 14 10 16 14 12 9 9 10 11 13 11 11 9
4 3 3 2 2 5 5 9 8 6 10 11 10 8 9 10 11 8 8 7 2 6 5 4 11 13 13 13 3 12 13 15 15 13 16 17 17 14 13 13 15 13 14 12 11
2 2 3 1 3 3 4 4 9 7 4 7 8 12 15 14 15 17 16 17 16 6 6 5 16 17 19 20 13 17 17 16 16 18 19 18 19 12 14 13 10 12 10 9 11
4 4 1 4 5 7 4 7 8 5 7 12 8 10 9 10 11 13 10 9 10 12 9 8 14 16 20 19 19 21 21 20 21 19 21 20 20 18 15 7 9 10 9 11 13
1 1 4 2 3 5 5 4 1 5 6 6 4 11 12 8 12 14 15 15 15 15 15 13 12 15 21 20 21 26 23 22 22 22 19 21 20 16 10 12 14 13 13 13 13
Wind_Direction
12 11 9 6 4 2 358 350 340 337 342 341 337 323 318 315 309 264 238 204 186 177 160 174 202 202 216 217 240 265 240 217 97 185 124 152 143 144 111 140 140 77 123 134 147
9 7 6 3 360 359 356 350 339 329 321 324 322 318 317 312 273 247 238 197 170 178 188 200 194 195 209 206 206 249 252 91 26 237 159 164 148 150 157 153 133 114 122 138 152
4 3 3 1 357 356 354 351 343 322 303 294 301 311 320 312 248 95 189 170 167 177 226 220 226 223 222 211 186 173 275 26 47 242 246 151 145 158 153 175 157 147 148 153 162
0 359 359 357 355 354 351 346 334 310 292 280 286 312 330 256 142 108 169 164 164 187 193 199 222 216 220 203 184 241 265 316 34 147 192 164 146 167 163 139 148 150 158 160 170
357 356 356 355 352 351 349 346 351 335 285 268 279 319 334 224 91 115 178 180 185 189 211 218 241 227 213 203 196 231 199 281 182 166 155 136 176 181 193 156 148 149 164 169 177
355 354 353 352 350 349 346 344 340 342 302 246 264 312 276 242 84 117 166 170 179 194 197 231 307 305 275 225 240 89 203 146 170 149 154 178 169 217 165 161 149 159 170 174 178
352 352 350 350 348 346 343 341 337 345 326 231 230 307 259 347 117 142 160 190 187 193 215 233 304 269 357 188 184 201 183 163 167 170 146 204 197 216 160 165 160 174 177 175 183
350 350 348 349 345 344 340 335 334 349 12 188 204 257 283 134 145 174 178 177 189 195 207 311 283 282 276 120 188 213 231 190 154 182 142 220 193 154 173 189 185 190 183 185 186
348 349 348 348 344 343 337 327 316 6 91 100 233 255 225 157 209 182 187 192 171 179 201 210 259 278 191 222 203 204 203 209 154 209 165 208 238 129 181 193 205 198 193 193 190
347 348 347 348 343 347 336 329 328 278 275 262 253 233 213 189 153 170 186 186 169 156 163 205 218 229 221 231 215 199 235 198 182 189 215 201 244 144 206 213 211 203 200 203 203
346 347 346 348 348 349 355 301 268 178 232 277 293 281 266 242 211 204 178 185 191 212 213 200 238 219 220 264 319 303 224 201 205 138 210 225 226 233 195 228 228 208 204 205 211
346 344 344 348 350 5 13 53 51 326 297 271 251 263 256 314 224 186 181 197 201 211 204 213 228 236 343 247 258 238 220 207 131 157 228 226 235 244 226 238 239 226 210 212 211
344 342 343 348 344 18 33 70 342 294 263 279 205 229 216 202 222 187 195 209 209 219 211 242 229 249 224 217 237 224 231 195 230 162 229 263 254 252 242 243 234 239 233 216 217
341 340 343 347 16 341 90 342 337 201 273 135 176 143 171 194 215 205 202 200 210 226 222 246 224 214 220 228 228 238 215 232 204 218 234 198 257 234 224 221 227 230 227 229 220
339 337 339 338 308 304 338 328 324 222 283 81 114 118 165 201 114 181 193 208 235 211 224 231 208 212 213 219 211 241 227 226 223 227 253 207 247 270 178 230 231 224 225 227 228
334 334 331 335 286 279 316 316 224 237 234 132 128 175 173 204 196 139 190 225 248 235 223 262 131 224 217 225 229 201 217 232 228 238 232 247 227 254 238 215 245 221 224 232 230
332 328 320 297 315 313 314 249 240 250 105 123 120 206 233 201 213 203 191 201 211 215 224 218 224 223 238 226 196 214 199 206 217 225 244 247 241 252 277 283 268 282 290 231 230
332 327 312 260 296 313 264 225 241 262 263 341 290 285 246 202 220 210 212 211 215 228 272 226 219 211 204 231 219 202 214 236 236 238 244 153 237 252 249 284 247 257 263 269 253
335 331 289 315 296 277 236 225 244 242 322 286 284 260 225 220 257 211 218 234 219 212 234 224 239 114 247 228 239 187 226 259 278 260 280 261 193 271 227 238 236 246 265 279 302
332 312 354 329 174 216 227 238 267 266 300 255 264 244 268 208 230 212 204 222 226 219 223 244 266 235 153 200 190 265 128 209 216 253 250 250 236 262 180 219 221 220 237 255 257
308 290 49 23 301 213 238 243 270 244 264 270 270 259 259 280 264 252 252 171 209 190 217 235 235 230 201 212 230 182 226 237 296 287 269 265 261 217 228 228 214 221 233 252 213
308 274 23 334 240 227 241 237 359 267 221 251 268 268 263 271 274 255 249 254 168 164 189 208 237 242 236 247 258 268 258 240 248 234 238 277 278 124 224 222 209 225 227 224 220
316 293 3 289 255 221 218 263 263 265 257 246 251 240 244 252 255 243 258 241 286 247 233 181 214 238 228 206 214 232 226 240 248 270 263 271 263 187 197 234 223 235 237 230 207
291 281 160 208 325 298 294 270 260 268 271 259 262 265 249 252 246 265 254 261 291 277 34 249 244 241 254 260 320 206 227 226 232 253 261 250 253 252 210 227 236 233 243 252 226
276 59 357 311 129 322 272 294 278 276 256 273 258 247 258 262 256 252 254 265 272 239 249 240 241 240 252 261 265 263 260 242 231 248 256 269 273 272 260 274 238 247 247 242 238
310 325 263 283 290 275 228 264 279 309 278 272 274 327 311 273 271 288 298 276 269 285 263 231 255 254 255 251 250 252 251 254 260 250 260 263 261 272 270 255 238 230 231 244 256
43 250 282 116 258 264 254 278 315 327 267 291 351 316 282 308 336 306 291 280 275 283 285 268 262 245 250 250 260 257 252 253 256 252 252 258 258 261 224 240 256 259 259 263 266